Regional Weather Roundup
Issued by NWS

Home | Current Version | Previous Version | Graphics & Text | Print | Product List | Glossary On
Versions: 1 2 3 4 5 6 7 8 9 10 11 12 13 14 15 16 17 18 19 20 21 22 23 24 25 26 27 28 29 30 31 32 33 34 35 36 37 38 39 40 41 42 43 44 45 46 47 48 49 50
000
ASUS43 KLOT 282203
RWRIL

ILLINOIS REGIONAL WEATHER ROUNDUP
NATIONAL WEATHER SERVICE CHICAGO/ROMEOVILLE IL
500 PM CDT TUE MAR 28 2017

NOTE: "FAIR" INDICATES FEW OR NO CLOUDS BELOW 12,000 FEET WITH NO
SIGNIFICANT WEATHER AND/OR OBSTRUCTIONS TO VISIBILITY.

* THESE STATIONS ARE NOT UNDER NWS QUALITY CONTROL. THEY ALSO MAY NOT
  REPORT WEATHER SUCH AS PRECIPITATION OR FOG.

ILZ001-002-007-009-015-016-024-282300-
NORTHWEST ILLINOIS

CITY           SKY/WX    TMP DP  RH WIND       PRES   REMARKS
MOLINE         CLOUDY    51  41  68 E12       30.12S
STERLING*      CLOUDY    49  41  74 NE7       30.14S
SAVANNA*       CLOUDY    49  39  68 NE5       30.14S
$$

ILZ003-004-008-010-011-017-018-282300-
NORTH CENTRAL ILLINOIS

CITY           SKY/WX    TMP DP  RH WIND       PRES   REMARKS
ROCKFORD       PTSUNNY   54  40  59 NE6       30.14F
FREEPORT*      CLOUDY    50  39  66 E3        30.15F
ROCHELLE*      CLOUDY    49  41  74 NE6       30.14S
DE KALB*       CLOUDY    51  42  72 NE6       30.13S
$$

ILZ005-006-012>014-019>023-282300-
NORTHEAST ILLINOIS

CITY           SKY/WX    TMP DP  RH WIND       PRES   REMARKS
CHICAGO-OHARE  PTSUNNY   46  37  71 NE13      30.14S
CHICAGO-MIDWAY PTSUNNY   45  38  76 NE12      30.15S
AURORA         CLOUDY    51  40  65 N7        30.12F
LANSING*       CLOUDY    41  39  91 N9        30.15S
JOLIET*        PTSUNNY   50  41  70 NE8       30.13S
WAUKEGAN       MOSUNNY   40  37  89 NE9       30.16R
DUPAGE AIRPORT CLOUDY    51  41  68 NE12      30.12S
WHEELING       PTSUNNY   42  38  85 NE10      30.16S
MORRIS*        CLOUDY    49  40  70 CALM      30.12S
NORTHERLY ISL    N/A     40  37  89 N8          N/A
$$

LMZ740>746-282300-
SOUTHERN LAKE MICHIGAN

STATION/POSITION SKY/WX   TEMP    WIND        PRES    VSBY  WAVE
                          AIR SEA DIR/SP/G                  HT/PER
                          (F)     (DEG/KT/KT) (MB)    (MI)  (FT/S)
HARRISON CRIB              38      10/ 12/ 14   N/A
BURNHAM HARBOR             39     360/ 10/ 13   N/A
CALUMET HARBOR             38     340/ 10/ 14 1020.5F
BURNS HARBOR               38      20/  8/ 10 1021.3S
MICHIGAN CITY              38     360/  7/  8   N/A
$$

ILZ025>027-034>036-040-047-049-050-058-095>099-282300-
WEST-CENTRAL ILLINOIS

CITY           SKY/WX    TMP DP  RH WIND       PRES   REMARKS
QUINCY         CLOUDY    52  49  89 NE9       30.08S FOG
GALESBURG*     CLOUDY    50  44  79 NE8       30.11S
MACOMB*        CLOUDY    52  47  81 E6        30.12S
JACKSONVILLE*  CLOUDY    54  46  74 NE10      30.09R
PITTSFIELD*    CLOUDY    53  50  89 NE6       30.10R FOG
$$

ILZ028>032-037-038-041>044-048-051>054-059>061-282300-
CENTRAL ILLINOIS

CITY           SKY/WX    TMP DP  RH WIND       PRES   REMARKS
PONTIAC        CLOUDY    49  44  82 N12       30.13S
BLOOMINGTON    CLOUDY    51  44  77 N15       30.10
DECATUR        CLOUDY    55  45  68 N12       30.09S
PEORIA         CLOUDY    53  43  68 NE3       30.11S
SPRINGFIELD    CLOUDY    55  46  71 NE10      30.09F
TAYLORVILLE    NOT AVBL
$$

ILZ033-039-045-046-055>057-062-063-282300-
EAST-CENTRAL ILLINOIS

CITY           SKY/WX    TMP DP  RH WIND       PRES   REMARKS
CHAMPAIGN      CLOUDY    56  43  61 N14       30.08S
RANTOUL*       CLOUDY    53  44  71 N15       30.10R
MATTOON        CLOUDY    57  47  69 N12       30.06F
$$

ILZ079-100>102-282300-
SOUTHWEST ILLINOIS

CITY           SKY/WX    TMP DP  RH WIND       PRES   REMARKS
ALTON          CLOUDY    55  46  71 NE6       30.07S
BELLEVILLE     CLOUDY    58  49  72 NE9       30.05S
CAHOKIA*       CLOUDY    59  48  67 N6        30.06S
SPARTA*        CLOUDY    56  49  76 NE5       30.06F
$$

ILZ064>066-069>071-074>076-080>082-084>086-088>090-092>094-282300-
SOUTH-CENTRAL ILLINOIS

CITY           SKY/WX    TMP DP  RH WIND       PRES   REMARKS
CARBONDALE     CLOUDY    58  50  75 N6        30.05F
CAIRO*         CLOUDY    59  53  78 NE8       30.03F
EFFINGHAM*     CLOUDY    59  49  70 N5        30.08R
MARION         CLOUDY    63  54  72 NE6       30.06S
MT. VERNON     MOSUNNY   61  49  64 NE6       30.05F
CENTRALIA*     MOSUNNY   60  50  69 NE3       30.05F
SALEM*         CLOUDY    60  49  68 N3        30.06F
$$

ILZ067-068-072-073-078-083-087-091-282300-
SOUTHEAST ILLINOIS

CITY           SKY/WX    TMP DP  RH WIND       PRES   REMARKS
LAWRENCEVILLE  CLOUDY    62  50  64 N7        30.05S
FLORA*         CLOUDY    62  50  64 NW3       30.06R
FAIRFIELD*     CLOUDY    61  50  67 CALM      30.04S
HARRISBURG*    CLOUDY    59  52  76 W6        30.06S
ROBINSON*      PTSUNNY   61  49  66 N5        30.06S
CARMI*         CLOUDY    61  51  70 NW3       30.04S
$$

ABBREVIATIONS USED IN REMARKS
   TC - TEMPERATURE IN CELSIUS
  WCI - WIND CHILL INDEX
   HX - HEAT INDEX
  VSB - VISIBILITY
$$




USA.gov is the U.S. government's official web portal to all federal, state and local government web resources and services.